Selinsgrove, PA

2:58 PM EDT on April 29, 2017 (GMT -0400)
Penn Valley

Weather History for KSEG - August, 2013

Change the Weather History Date:

Sunday, August 18, 2013

  Actual Average (KIPT) Record (KIPT)
Temperature  
Mean Temperature 66 °F -  
Max Temperature 73 °F 79 °F 96 °F (1995)
Min Temperature 59 °F 59 °F 43 °F (1941)
Cooling Degree Days 2    
Growing Degree Days 16 (Base 50)    
Moisture  
Dew Point 59 °F    
Average Humidity 82    
Maximum Humidity 96    
Minimum Humidity 55    
Precipitation  
Precipitation 0.00 in - - ()
Sea Level Pressure  
Sea Level Pressure 30.23 in    
Wind  
Wind Speed 0 mph (SSW)    
Max Wind Speed 4 mph    
Max Gust Speed -    
Visibility 8 miles    
Events Rain    
Averages and records for this station are not official NWS values.
T = Trace of Precipitation, MM = Missing Value Source: NWS Daily Summary

Daily Weather History Graph

Daily Weather History Graph

Search for Another Location

Airport or City:

Trip Planner

Search our weather history database for the weather conditions in past years. The results will help you decide how hot, cold, wet, or windy it might be!

Date:

Astronomy

Aug. 18, 2013 Rise Set
Actual Time 6:20 AM EDT 8:00 PM EDT
Civil Twilight 5:51 AM EDT 8:30 PM EDT
Nautical Twilight 5:16 AM EDT 9:05 PM EDT
Astronomical Twilight 4:38 AM EDT 9:42 PM EDT
Moon 6:05 PM EDT (8/18) 3:27 AM EDT (8/18)
Length of Visible Light 14h 38m
Length of Day
13h 40m
Waxing Gibbous, 92% of the Moon is Illuminated
Aug 18
Waxing Gibbous
Aug 20
Full
Aug 28
Last Quarter
Sep 5
New
Sep 12
First Quarter

Hourly Weather History & Observations

Time (EDT) Temp. Dew Point Humidity Pressure Visibility Wind Dir Wind Speed Gust Speed Precip Events Conditions
12:53 AM 61.0 °F 59.0 °F 93% 30.25 in 4.0 mi Calm Calm - N/A   Clear
1:53 AM 60.1 °F 59.0 °F 96% 30.25 in 4.0 mi Calm Calm - N/A   Clear
2:53 AM 61.0 °F 59.0 °F 93% 30.25 in 5.0 mi Calm Calm - N/A   Clear
3:53 AM 61.0 °F 59.0 °F 93% 30.24 in 5.0 mi Calm Calm - N/A   Clear
4:53 AM 61.0 °F 59.0 °F 93% 30.24 in 5.0 mi Calm Calm - N/A   Partly Cloudy
5:53 AM 61.0 °F 59.0 °F 93% 30.25 in 5.0 mi Calm Calm - N/A   Scattered Clouds
6:53 AM 62.1 °F 60.1 °F 93% 30.26 in 4.0 mi Calm Calm - N/A   Overcast
7:53 AM 62.1 °F 60.1 °F 93% 30.26 in 4.0 mi Calm Calm - N/A   Clear
8:53 AM 64.9 °F 61.0 °F 87% 30.27 in 7.0 mi Calm Calm - N/A   Clear
9:53 AM 66.9 °F 61.0 °F 81% 30.28 in 9.0 mi Calm Calm - 0.00 in Rain Light Rain
10:53 AM 69.1 °F 61.0 °F 75% 30.29 in 10.0 mi Calm Calm - 0.00 in   Clear
11:53 AM 69.1 °F 62.1 °F 78% 30.27 in 9.0 mi Variable 3.5 mph - N/A   Overcast
12:53 PM 69.1 °F 62.1 °F 78% 30.25 in 10.0 mi Variable 3.5 mph - 0.00 in   Overcast
1:53 PM 72.0 °F 60.1 °F 66% 30.25 in 10.0 mi Calm Calm - N/A   Partly Cloudy
2:53 PM 73.0 °F 55.9 °F 55% 30.22 in 10.0 mi Calm Calm - N/A   Mostly Cloudy
3:53 PM 73.0 °F 57.0 °F 57% 30.20 in 10.0 mi Calm Calm - N/A   Scattered Clouds
4:53 PM 72.0 °F 57.0 °F 59% 30.19 in 10.0 mi Calm Calm - N/A   Scattered Clouds
5:53 PM 72.0 °F 57.9 °F 61% 30.19 in 10.0 mi Calm Calm - N/A   Mostly Cloudy
6:53 PM 71.1 °F 57.9 °F 63% 30.18 in 10.0 mi SSW 3.5 mph - N/A   Scattered Clouds
7:53 PM 64.9 °F 61.0 °F 87% 30.18 in 10.0 mi Calm Calm - N/A   Scattered Clouds
8:53 PM 62.1 °F 59.0 °F 90% 30.19 in 10.0 mi Calm Calm - N/A   Clear
9:53 PM 60.1 °F 57.9 °F 93% 30.18 in 7.0 mi Calm Calm - N/A   Clear
10:53 PM 60.1 °F 57.9 °F 93% 30.18 in 6.0 mi Calm Calm - N/A   Clear
11:53 PM 59.0 °F 57.0 °F 93% 30.18 in 6.0 mi Calm Calm - N/A   Partly Cloudy